Location: Stockholm
(59.3330°N, 18.0500°E)
Time: 04:52:22
(UTC+02:00)

NOAA 18 - Pass Details

Date: 04 April 2023
Orbit: 838 x 860 km, 98.9° (Epoch: 31 May)

Event Time Altitude Azimuth Distance (km) Brightness Sun altitude
Exits shadow 00:24:14 11° 249° (WSW) 2,426 7.4 -25.0°
Maximum altitude 00:26:55 15° 279° (W) 2,173 7.5 -25.0°
Drops below altitude 10° 00:30:00 10° 313° (NW) 2,511 8.3 -25.0°
Sets 00:33:34 0° 337° (NNW) 3,451 9.6 -25.1°
